Home   Weather   Pointe-Noire   Past weeks

Flag for Congo Past Weather in Pointe-Noire, Congo — Yesterday and Last 2 Weeks

Now
75 °F

Thunderstorms. Passing clouds.


Feels Like: 74 °F
Forecast: 78 / 87 °F
Wind: 7 mph from Southeast

Location: Pointe Airport-Noire

Current Time: Dec 10, 2016 at 2:32:19 am

Latest Report: Dec 10, 2016 at 12:00 am


Visibility: 4 mi

Pressure: 29.92 "Hg

Humidity: 94%

Dew Point: 73 °F

Location of Pointe-NoireLocation

Past Weather in Pointe-Noire — Graph

°F

Pointe-Noire Temperature Yesterday

Maximum temperature yesterday: 86 °F (at 12:00 pm)
Minimum temperature yesterday: 73 °F (at 1:00 am)
Average temperature yesterday: 80 °F

High & Low Weather Summary for the Past Weeks

 TemperatureHumidityPressure
High88 °F (Nov 30, 12:00 pm)100% (Nov 25, 6:00 am)29.98 "Hg (Nov 25, 6:00 am)
Low73 °F (Nov 29, 5:00 am)66% (Nov 28, 1:00 pm)29.74 "Hg (Nov 26, 4:00 pm)
Average81 °F85%29.86 "Hg
* Reported Nov 25 12:00 am — Dec 10 12:00 am, Pointe-Noire, Weather by CustomWeather, © 2016

Note: Actual official high and low records may vary slightly from our data, if they occured in-between our weather recording intervals... More about our weather records

Advertising

Pointe-Noire Weather History for the Previous 24 Hours

Scroll right to see more
 ConditionsComfort  
Time TempWeatherWind HumidityBarometerVisibility
12:00 am
Sat, Dec 10
75 °FThunderstorms. Passing clouds.7 mph94%29.92 "Hg4 mi
11:00 pm
Fri, Dec 9
77 °FThunderstorms. Passing clouds.16 mph89%29.92 "Hg5 mi
10:00 pm77 °FThunderstorms. Passing clouds.16 mph89%29.95 "Hg5 mi
8:00 pm81 °FThunderstorms. Passing clouds.2 mph89%29.89 "HgN/A
7:00 pm82 °FThunderstorms. Passing clouds.5 mph84%29.83 "HgN/A
6:00 pm82 °FScattered clouds.5 mph84%29.83 "HgN/A
5:00 pm84 °FScattered clouds.9 mph79%29.80 "HgN/A
4:00 pm86 °FScattered clouds.14 mph70%29.83 "HgN/A
3:00 pm86 °FScattered clouds.12 mph70%29.86 "HgN/A
2:00 pm86 °FScattered clouds.9 mph70%29.86 "HgN/A
1:00 pm86 °FScattered clouds.7 mph66%29.89 "HgN/A
12:00 pm86 °FScattered clouds.7 mph70%29.92 "HgN/A
11:00 am84 °FScattered clouds.6 mph74%29.86 "Hg5 mi
10:00 am82 °FScattered clouds.5 mph84%29.95 "Hg5 mi
9:00 am79 °FPassing clouds.7 mph84%29.95 "Hg5 mi
8:00 am75 °FPassing clouds.3 mph94%29.89 "Hg5 mi
7:00 am75 °FPassing clouds.No wind94%29.92 "Hg5 mi
6:00 am75 °FScattered clouds.5 mph94%29.89 "Hg5 mi
5:00 am75 °FPassing clouds.2 mph94%29.89 "Hg5 mi
4:00 am75 °FPassing clouds.1 mph94%29.89 "Hg5 mi
3:00 am73 °FPassing clouds.5 mph100%29.89 "Hg5 mi
2:00 am73 °FPassing clouds.6 mph100%29.89 "Hg5 mi
Weather by CustomWeather, © 2016

See weather overviewHow to use our weather pages